Overview Statistics Trail Chart Weather Telemetry Raw packets
 

This is the latest recevied weather packets stored in our database for station/object W0CHP-13. If no packets are shown the sender has not sent any weather packets the latest 10 day(s).

<< 39 40 41 42 43 44 45 >>
Time Temp. Humidity Pressure Rain* Wind** Luminosity Snow
1788102616 25.56° C 75% 1008.9 hPa 0 mm - 295 W/m² -
1788102018 25.56° C 74% 1008.5 hPa 0 mm - 198 W/m² -
1788101416 25.56° C 73% 1008.5 hPa 0 mm - 242 W/m² -
1788100819 25.56° C 74% 1008.5 hPa 0 mm - 378 W/m² -
1788100216 25° C 78% 1008.5 hPa 0 mm - 340 W/m² -
1788099618 24.44° C 79% 1008.5 hPa 0 mm - 306 W/m² -
1788099017 24.44° C 79% 1008.5 hPa 0 mm - 264 W/m² -
1788098418 23.89° C 80% 1008.5 hPa 0 mm - 189 W/m² -
1788097816 23.33° C 81% 1008.5 hPa 0 mm - 108 W/m² -
1788097215 23.33° C 81% 1008.5 hPa 0 mm - 105 W/m² -
1788096617 23.33° C 82% 1008.5 hPa 0 mm - 129 W/m² -
1788096015 22.78° C 83% 1008.5 hPa 0 mm - 102 W/m² -
1788095418 22.78° C 83% 1008.9 hPa 0 mm - 51 W/m² -
1788094817 22.78° C 83% 1008.5 hPa 0 mm - 49 W/m² -
1788094218 22.78° C 83% 1008.5 hPa 0 mm - 60 W/m² -
1788093616 22.78° C 83% 1008.5 hPa 0 mm - 66 W/m² -
1788093016 22.78° C 83% 1008.2 hPa 0 mm - 60 W/m² -
1788092418 22.22° C 84% 1008.5 hPa 0 mm - 47 W/m² -
1788091815 22.22° C 83% 1008.2 hPa 0 mm - 36 W/m² -
1788091218 21.67° C 84% 1008.2 hPa 0 mm - 23 W/m² -
1788090616 21.67° C 83% 1008.5 hPa 0 mm - 15 W/m² -
1788090017 22.22° C 83% 1008.3 hPa 0 mm - 6 W/m² -
1788089415 22.22° C 83% 1008.2 hPa 0 mm - 2 W/m² -
1788088818 22.22° C 82% 1008.5 hPa 0 mm - 1 W/m² -
1788088216 22.22° C 82% 1008.5 hPa 0 mm - 0 W/m² -

* Rain latest hour (hover to see other rain measurements)
** Current wind speed in m/s (hover to see current wind gust speed)